Location: ??????
(30.5519°N, 47.7720°E)
Time: 08:25:23
(UTC+00:00)

Envisat - Visible Passes

Search period start: 23 April 2021 00:00
Search period end: 03 May 2021 00:00
Orbit: 764 x 766 km, 98.1° (Epoch: 22 April)

Date Brightness Start Highest point End Pass type
(mag) Time Alt. Az. Time Alt. Az. Time Alt. Az.
24 Apr 5.8 01:12:55 10° NE 01:16:14 17° E 01:19:31 10° SE visible
26 Apr 4.9 01:37:12 10° NE 01:41:44 32° E 01:46:15 10° SSE visible
27 Apr 6.0 01:02:25 10° ENE 01:04:42 13° E 01:06:58 10° ESE visible
29 Apr 5.4 01:26:06 10° NE 01:30:14 25° E 01:34:22 10° SSE visible
02 May 5.7 01:15:10 10° NE 01:18:43 19° E 01:22:16 10° SE visible
